FW2795 Weather Reports


Display with metric or nautical units.
time (UTC)temp
F
wind
direction
speed
MPH
gust
MPH
rain 1hr
in
rain 24hr
in
rain mn
in
humidity
%
barometer
mb
20260504215809 56 60 1.0 2.0 0.00 0.00 0.00 81 1015.4
20260504215309 56 64 0.0 1.0 0.00 0.00 0.00 81 1015.5
20260504214808 56 61 2.0 3.0 0.00 0.00 0.00 81 1015.6
20260504214323 56 68 2.0 4.0 0.00 0.00 0.00 81 1015.5
20260504213813 56 49 2.0 4.0 0.00 0.00 0.00 81 1015.5
20260504213302 56 23 2.0 3.0 0.00 0.00 0.00 81 1015.6
20260504212817 56 60 0.0 1.0 0.00 0.00 0.00 81 1015.7
20260504212307 56 59 2.0 4.0 0.00 0.00 0.00 81 1015.6
20260504211806 56 77 0.0 2.0 0.00 0.00 0.00 81 1015.6
20260504211320 56 58 0.0 1.0 0.00 0.00 0.00 81 1015.5
20260504210810 56 58 1.0 2.0 0.00 0.00 0.00 81 1015.6
20260504210314 56 60 3.0 4.0 0.00 0.00 0.00 81 1015.6
20260504205804 56 3 1.0 2.0 0.00 0.00 0.00 81 1015.6
20260504205304 56 352 0.0 1.0 0.00 0.00 0.00 81 1015.6
20260504204803 56 352 3.0 4.0 0.00 0.00 0.00 81 1015.5
20260504204317 56 263 0.0 2.0 0.00 0.00 0.00 81 1015.7
20260504203802 56 269 1.0 2.0 0.00 0.00 0.00 81 1015.5
20260504203301 56 264 2.0 2.0 0.00 0.00 0.00 81 1015.7
20260504202801 57 273 0.0 1.0 0.00 0.00 0.00 81 1015.6
20260504202316 57 273 0.0 2.0 0.00 0.00 0.00 81 1015.6
20260504201800 57 284 2.0 4.0 0.00 0.00 0.00 81 1015.5
20260504201300 57 357 1.0 2.0 0.00 0.00 0.00 80 1015.4
20260504200815 57 344 2.0 2.0 0.00 0.00 0.00 80 1015.4
20260504200304 57 7 2.0 4.0 0.00 0.00 0.00 79 1015.4
20260504195803 57 352 0.0 1.0 0.00 0.00 0.00 79 1015.3
20260504195304 58 353 2.0 3.0 0.00 0.00 0.00 79 1015.4
20260504194817 58 10 2.0 2.0 0.00 0.00 0.00 78 1015.3
20260504194307 58 23 1.0 2.0 0.00 0.00 0.00 78 1015.1
20260504193806 58 34 1.0 2.0 0.00 0.00 0.00 77 1015.0
20260504193306 58 37 2.0 3.0 0.00 0.00 0.00 76 1014.9
20260504192806 58 40 2.0 2.0 0.00 0.00 0.00 75 1014.9
20260504192305 59 52 2.0 3.0 0.00 0.00 0.00 75 1014.8
20260504191805 59 73 2.0 4.0 0.00 0.00 0.00 73 1014.9
20260504191304 59 62 0.0 1.0 0.00 0.00 0.00 73 1014.8
20260504190804 60 62 2.0 3.0 0.00 0.00 0.00 72 1014.7
20260504190304 60 49 2.0 3.0 0.00 0.00 0.00 72 1014.7
20260504185818 61 22 2.0 4.0 0.00 0.00 0.00 70 1014.6
20260504185308 61 45 2.0 3.0 0.00 0.00 0.00 70 1014.7
20260504184808 61 45 1.0 2.0 0.00 0.00 0.00 69 1014.5
20260504184307 62 45 0.0 2.0 0.00 0.00 0.00 69 1014.5
20260504183806 63 45 1.0 2.0 0.00 0.00 0.00 68 1014.6
20260504183305 63 57 1.0 2.0 0.00 0.00 0.00 68 1014.3
20260504182805 63 59 0.0 2.0 0.00 0.00 0.00 69 1014.5
20260504182304 62 58 0.0 1.0 0.00 0.00 0.00 70 1014.3
20260504181804 62 45 0.0 1.0 0.00 0.00 0.00 70 1014.3
20260504181319 62 45 2.0 3.0 0.00 0.00 0.00 70 1014.3
20260504180809 61 50 2.0 4.0 0.00 0.00 0.00 71 1014.4
20260504180323 61 47 2.0 4.0 0.00 0.00 0.00 72 1014.3
20260504175803 60 53 1.0 4.0 0.00 0.00 0.00 72 1014.5
20260504175304 60 62 3.0 5.0 0.00 0.00 0.00 71 1014.3
20260504174802 61 89 3.0 5.0 0.00 0.00 0.00 68 1014.4
20260504174317 62 107 2.0 4.0 0.00 0.00 0.00 68 1014.4
20260504173801 63 110 4.0 5.0 0.00 0.00 0.00 66 1014.5
20260504173301 64 132 2.0 6.0 0.00 0.00 0.00 65 1014.5
20260504172801 64 98 3.0 5.0 0.00 0.00 0.00 66 1014.6
20260504172315 64 52 2.0 4.0 0.00 0.00 0.00 68 1014.6
20260504171805 63 27 1.0 3.0 0.00 0.00 0.00 68 1014.9
20260504171304 62 44 2.0 4.0 0.00 0.00 0.00 71 1014.9
20260504170804 61 59 2.0 4.0 0.00 0.00 0.00 72 1015.0
20260504170304 60 32 2.0 4.0 0.00 0.00 0.00 73 1014.8
20260504160314 60 92 2.0 4.0 0.00 0.00 0.00 73 1014.8
20260504150810 60 32 0.0 2.0 0.00 0.00 0.00 73 1015.0
20260504150309 60 32 3.0 5.0 0.00 0.00 0.00 73 1014.9
20260504141305 63 67 2.0 3.0 0.00 0.00 0.00 67 1014.8
20260504140805 63 65 2.0 2.0 0.00 0.00 0.00 66 1015.0
20260504140319 63 101 1.0 2.0 0.00 0.00 0.00 65 1014.8
20260504130803 66 348 2.0 4.0 0.00 0.00 0.00 57 1014.9
20260504130302 68 339 3.0 5.0 0.00 0.00 0.00 56 1014.8
20260504120301 66 128 6.0 8.0 0.00 0.00 0.00 61 1014.9
20260504110257 60 82 2.0 3.0 0.00 0.00 0.00 77 1015.1
20260504081805 56 63 2.0 4.0 0.00 0.00 0.00 94 1014.6
20260504080754 56 88 2.0 4.0 0.00 0.00 0.00 94 1014.5
20260504080254 56 79 1.0 2.0 0.00 0.00 0.00 94 1014.4
20260504070259 56 25 2.0 2.0 0.00 0.00 0.00 93 1013.9
20260504050259 55 312 1.0 3.0 0.00 0.00 0.00 93 1012.9
20260504045759 55 311 1.0 2.0 0.00 0.00 0.00 93 1012.7
20260504045314 55 338 1.0 2.0 0.00 0.00 0.00 93 1012.5
20260504044803 54 315 0.0 2.0 0.00 0.00 0.00 93 1012.5
20260504044303 54 315 0.0 1.0 0.00 0.00 0.00 92 1012.6
20260504043802 54 315 1.0 2.0 0.00 0.00 0.00 92 1012.8
20260504043302 54 315 1.0 2.0 0.00 0.00 0.00 92 1012.9
20260504042802 54 315 0.0 0.0 0.00 0.00 0.00 92 1012.9
20260504042306 54 315 0.0 1.0 0.00 0.00 0.00 92 1012.7
20260504041756 54 315 0.0 1.0 0.00 0.00 0.00 92 1012.6
20260504041255 54 315 1.0 2.0 0.00 0.00 0.00 92 1012.6
20260504040755 54 180 0.0 2.0 0.00 0.00 0.00 92 1012.5
20260504040255 54 180 0.0 2.0 0.00 0.00 0.00 92 1012.8
20260504035754 54 180 0.0 0.0 0.00 0.00 0.00 92 1012.8
20260504035254 55 180 0.0 1.0 0.00 0.00 0.00 92 1012.7
20260504034754 55 180 0.0 0.0 0.00 0.00 0.00 92 1012.7
20260504034253 55 180 0.0 0.0 0.00 0.00 0.00 92 1012.6
20260504033753 55 180 0.0 0.0 0.00 0.00 0.00 92 1012.7
20260504033253 55 180 0.0 1.0 0.00 0.00 0.00 92 1012.5
20260504032752 55 180 0.0 0.0 0.00 0.00 0.00 92 1012.7
20260504032307 54 180 0.0 1.0 0.00 0.00 0.00 92 1012.7
20260504031756 54 180 0.0 0.0 0.00 0.00 0.00 92 1012.6
20260504031256 55 180 0.0 0.0 0.00 0.00 0.00 92 1012.8
20260504030756 54 315 0.0 1.0 0.00 0.00 0.00 92 1012.7
20260504030255 54 315 0.0 1.0 0.00 0.00 0.00 92 1012.6
20260504025755 54 315 0.0 1.0 0.00 0.00 0.00 92 1012.7
20260504025310 54 315 0.0 1.0 0.00 0.00 0.00 91 1012.6
20260504024759 54 315 0.0 2.0 0.00 0.00 0.00 91 1012.5
20260504024259 55 315 1.0 2.0 0.00 0.00 0.00 91 1012.8
20260504023813 55 309 1.0 2.0 0.00 0.00 0.00 91 1012.6
20260504023303 55 303 1.0 2.0 0.00 0.00 0.00 91 1012.5
20260504022802 55 295 2.0 2.0 0.00 0.00 0.00 91 1012.5
20260504022304 55 255 0.0 2.0 0.00 0.00 0.00 91 1012.5
20260504021802 54 255 0.0 1.0 0.00 0.00 0.00 91 1012.6
20260504021302 54 255 1.0 2.0 0.00 0.00 0.00 91 1012.7
20260504020801 54 270 1.0 2.0 0.00 0.00 0.00 90 1012.6
20260504020301 54 270 1.0 2.0 0.00 0.00 0.00 90 1012.7
20260504015801 54 270 1.0 2.0 0.00 0.00 0.00 90 1012.5
20260504015300 54 180 0.0 0.0 0.00 0.00 0.00 90 1012.5
20260504014800 53 180 0.0 1.0 0.00 0.00 0.00 90 1012.5
20260504014250 53 180 0.0 1.0 0.00 0.00 0.00 90 1012.4
20260504013750 53 180 0.0 0.0 0.00 0.00 0.00 90 1012.2
20260504013304 53 180 0.0 1.0 0.00 0.00 0.00 90 1012.4
20260504012804 53 180 0.0 0.0 0.00 0.00 0.00 90 1012.4
20260504012253 53 180 0.0 0.0 0.00 0.00 0.00 89 1012.4
20260504011753 53 180 0.0 0.0 0.00 0.00 0.00 89 1012.3
20260504011253 53 180 0.0 0.0 0.00 0.00 0.00 89 1012.2
20260504010752 53 180 0.0 0.0 0.00 0.00 0.00 89 1012.6
20260504010252 53 180 0.0 0.0 0.00 0.00 0.00 89 1012.4
20260504005751 53 180 0.0 0.0 0.00 0.00 0.00 88 1012.3
20260504005251 54 180 0.0 0.0 0.00 0.00 0.00 87 1012.2
20260504004751 54 180 0.0 0.0 0.00 0.00 0.00 87 1012.4
20260504004305 54 180 0.0 1.0 0.00 0.00 0.00 87 1012.3
20260504003755 54 180 0.0 0.0 0.00 0.00 0.00 87 1012.3
20260504003254 55 180 0.0 0.0 0.00 0.00 0.00 86 1012.2
20260504002754 55 180 0.0 0.0 0.00 0.00 0.00 86 1012.4
20260504002254 55 180 0.0 0.0 0.00 0.00 0.00 86 1012.4
20260504001753 55 180 0.0 0.0 0.00 0.00 0.00 85 1012.3
20260504001252 55 338 0.0 1.0 0.00 0.00 0.00 85 1012.4
20260504000751 56 332 0.0 1.0 0.00 0.00 0.00 86 1012.4
20260504000252 56 332 0.0 0.0 0.00 0.00 0.00 86 1012.4
20260503235751 56 332 0.0 1.0 0.00 0.00 0.00 86 1012.4
20260503235250 56 333 0.0 2.0 0.00 0.00 0.00 87 1012.2
20260503234749 57 333 2.0 3.0 0.00 0.00 0.00 88 1012.3
20260503234249 57 326 1.0 2.0 0.00 0.00 0.00 88 1012.2
20260503233749 57 325 0.0 1.0 0.00 0.00 0.00 88 1012.4
20260503233248 57 323 0.0 2.0 0.00 0.00 0.00 88 1012.4
20260503232748 57 323 2.0 2.0 0.00 0.00 0.00 86 1012.3
20260503232305 57 303 0.0 2.0 0.00 0.00 0.00 86 1012.2
20260503231752 57 304 1.0 2.0 0.00 0.00 0.00 85 1012.3
20260503231252 57 305 1.0 2.0 0.00 0.00 0.00 85 1012.3
20260503230751 57 321 1.0 2.0 0.00 0.00 0.00 85 1012.3
20260503230251 57 324 1.0 2.0 0.00 0.00 0.00 84 1012.2
20260503225805 57 322 0.0 1.0 0.00 0.00 0.00 84 1012.2
20260503225305 58 322 1.0 2.0 0.00 0.00 0.00 84 1012.2
20260503224755 58 323 1.0 2.0 0.00 0.00 0.00 84 1012.0
20260503224310 58 303 0.0 1.0 0.00 0.00 0.00 84 1012.0
20260503223759 58 305 1.0 2.0 0.00 0.00 0.00 84 1012.2
20260503223259 58 301 1.0 2.0 0.00 0.00 0.00 84 1011.9
20260503222758 58 311 0.0 2.0 0.00 0.00 0.00 84 1012.0
20260503222258 58 306 2.0 3.0 0.00 0.00 0.00 84 1012.1
20260503221758 58 291 0.0 2.0 0.00 0.00 0.00 84 1012.0
20260503221257 58 291 1.0 2.0 0.00 0.00 0.00 83 1011.9
20260503220757 58 279 1.0 2.0 0.00 0.00 0.00 83 1011.9
20260503220257 58 268 1.0 2.0 0.00 0.00 0.00 83 1011.9